{"data":{"norad_id":57648,"intl_designator":"2023-122S","name":"STARLINK-30243","alt_names":[],"object_type":"PAYLOAD","status":"ACTIVE","operator":null,"country":"US","launch_date":"2023-08-17","launch_site_code":"AFETR","launch_vehicle":null,"mission":null,"orbit_class":"UNKNOWN","rcs_meters":null,"size_class":null,"mass_kg":null,"dimensions":null,"purposes":["comms"],"wikipedia_slug":null,"has_3d_model":false,"image_url":null,"decayed_at":null,"tle_current":{"epoch":"2026-09-19T20:58:34.076928Z","epoch_age_seconds":185740,"freshness":"STALE","line1":"1 57648U 23122S   26262.87400552  .00000316  00000+0  21023-4 0  9990","line2":"2 57648  43.0059  75.9618 0001814 275.6638  84.4007 15.27578391171909","mean_motion":15.27578391,"eccentricity":0.0001814,"inclination_deg":43.0059,"raan_deg":75.9618,"arg_perigee_deg":275.6638,"mean_anomaly_deg":84.4007,"bstar":2.1023e-5,"rev_number":17190,"period_min":94.266848004922,"perigee_km":481.80929393692,"apogee_km":484.29853400051,"semimajor_km":6861.1909139687,"source":"CELESTRAK","updated_at":"2026-09-21T09:00:33.668521Z"}}}